contact:dominique.lefevre@mio.osupytheas.fr, maurice.libes@osupytheas.fr, didier.mallarino@osupytheas.fr
Project:EMSO http://www.emso-fr.org/EMSO-France
Depth: 2436.0 m
Title:EMSO Ligure Ouest : Data MII capteur MICROCAT
DateTime_Computer,Latitude,Longitude,Temperature,Conductivity,Pressure,DateTime_Instrument
DateTime_Computer,Latitude,Longitude,degC,S m-1,dbar,DateTime_Instrument
2021-10-04T00:02:45Z,42.805,6.029,13.2992,4.60006,2470.366,2021-10-04T02:04:08Z
2021-10-04T00:05:48Z,42.805,6.029,13.2991,4.60006,2470.376,2021-10-04T02:07:11Z
2021-10-04T00:08:51Z,42.805,6.029,13.2991,4.60006,2470.38,2021-10-04T02:10:14Z
2021-10-04T00:11:55Z,42.805,6.029,13.2990,4.60005,2470.357,2021-10-04T02:13:17Z
2021-10-04T00:14:58Z,42.805,6.029,13.2993,4.60004,2470.33,2021-10-04T02:16:20Z
2021-10-04T00:18:01Z,42.805,6.029,13.2992,4.60004,2470.404,2021-10-04T02:19:23Z
2021-10-04T00:21:04Z,42.805,6.029,13.2989,4.60005,2470.357,2021-10-04T02:22:26Z
2021-10-04T00:24:07Z,42.805,6.029,13.2993,4.60011,2470.38,2021-10-04T02:25:30Z
2021-10-04T00:27:10Z,42.805,6.029,13.2991,4.60005,2470.366,2021-10-04T02:28:33Z
2021-10-04T00:30:13Z,42.805,6.029,13.2991,4.60006,2470.38,2021-10-04T02:31:36Z
2021-10-04T00:33:16Z,42.805,6.029,13.2990,4.60005,2470.343,2021-10-04T02:34:39Z
2021-10-04T00:36:19Z,42.805,6.029,13.2991,4.60006,2470.366,2021-10-04T02:37:42Z
2021-10-04T00:39:23Z,42.805,6.029,13.2991,4.60006,2470.357,2021-10-04T02:40:45Z
2021-10-04T00:42:26Z,42.805,6.029,13.2991,4.60005,2470.366,2021-10-04T02:43:48Z
2021-10-04T00:45:29Z,42.805,6.029,13.2987,4.60005,2470.366,2021-10-04T02:46:51Z
2021-10-04T00:48:32Z,42.805,6.029,13.2993,4.60008,2470.366,2021-10-04T02:49:54Z
2021-10-04T00:51:35Z,42.805,6.029,13.2990,4.60007,2470.366,2021-10-04T02:52:58Z
2021-10-04T00:54:38Z,42.805,6.029,13.2992,4.60005,2470.343,2021-10-04T02:56:01Z
2021-10-04T00:57:41Z,42.805,6.029,13.2991,4.60009,2470.366,2021-10-04T02:59:04Z
2021-10-04T01:00:44Z,42.805,6.029,13.2992,4.60007,2470.404,2021-10-04T03:02:07Z
2021-10-04T01:03:47Z,42.805,6.029,13.2992,4.60005,2470.343,2021-10-04T03:05:10Z
2021-10-04T01:06:51Z,42.805,6.029,13.2991,4.60005,2470.366,2021-10-04T03:08:13Z
2021-10-04T01:09:54Z,42.805,6.029,13.2993,4.60006,2470.343,2021-10-04T03:11:16Z
2021-10-04T01:12:57Z,42.805,6.029,13.2987,4.60006,2470.404,2021-10-04T03:14:19Z
2021-10-04T01:16:00Z,42.805,6.029,13.2991,4.60006,2470.343,2021-10-04T03:17:22Z
2021-10-04T01:19:03Z,42.805,6.029,13.2990,4.60005,2470.39,2021-10-04T03:20:26Z
2021-10-04T01:22:06Z,42.805,6.029,13.2990,4.60006,2470.38,2021-10-04T03:23:29Z
2021-10-04T01:25:09Z,42.805,6.029,13.2990,4.60006,2470.38,2021-10-04T03:26:32Z
2021-10-04T01:28:12Z,42.805,6.029,13.2993,4.60006,2470.38,2021-10-04T03:29:35Z
2021-10-04T01:31:16Z,42.805,6.029,13.2993,4.60006,2470.357,2021-10-04T03:32:38Z
2021-10-04T01:34:19Z,42.805,6.029,13.2991,4.60008,2470.39,2021-10-04T03:35:41Z
2021-10-04T01:37:22Z,42.805,6.029,13.2991,4.60006,2470.366,2021-10-04T03:38:44Z
2021-10-04T01:40:25Z,42.805,6.029,13.2992,4.60005,2470.39,2021-10-04T03:41:47Z
2021-10-04T01:43:28Z,42.805,6.029,13.2986,4.60006,2470.39,2021-10-04T03:44:51Z
2021-10-04T01:46:31Z,42.805,6.029,13.2993,4.60006,2470.39,2021-10-04T03:47:54Z
2021-10-04T01:49:34Z,42.805,6.029,13.2991,4.60006,2470.404,2021-10-04T03:50:57Z
2021-10-04T01:52:37Z,42.805,6.029,13.2991,4.60004,2470.39,2021-10-04T03:54:00Z
2021-10-04T01:55:40Z,42.805,6.029,13.2988,4.60005,2470.39,2021-10-04T03:57:03Z
2021-10-04T01:58:44Z,42.805,6.029,13.2991,4.60006,2470.413,2021-10-04T04:00:06Z
2021-10-04T02:01:47Z,42.805,6.029,13.2993,4.60007,2470.413,2021-10-04T04:03:09Z
2021-10-04T02:04:50Z,42.805,6.029,13.2990,4.60006,2470.404,2021-10-04T04:06:12Z
2021-10-04T02:07:53Z,42.805,6.029,13.2986,4.60008,2470.404,2021-10-04T04:09:15Z
2021-10-04T02:10:56Z,42.805,6.029,13.2991,4.60007,2470.404,2021-10-04T04:12:19Z
2021-10-04T02:13:59Z,42.805,6.029,13.2990,4.60007,2470.427,2021-10-04T04:15:22Z
2021-10-04T02:17:02Z,42.805,6.029,13.2991,4.60007,2470.45,2021-10-04T04:18:25Z
2021-10-04T02:20:05Z,42.805,6.029,13.2993,4.60010,2470.413,2021-10-04T04:21:28Z
2021-10-04T02:23:08Z,42.805,6.029,13.2990,4.60007,2470.427,2021-10-04T04:24:31Z
2021-10-04T02:26:12Z,42.805,6.029,13.2992,4.60006,2470.427,2021-10-04T04:27:34Z
2021-10-04T02:29:15Z,42.805,6.029,13.2990,4.60006,2470.39,2021-10-04T04:30:37Z
2021-10-04T02:32:18Z,42.805,6.029,13.2994,4.60006,2470.45,2021-10-04T04:33:40Z
2021-10-04T02:35:21Z,42.805,6.029,13.2989,4.60007,2470.38,2021-10-04T04:36:44Z
2021-10-04T02:38:24Z,42.805,6.029,13.2991,4.60009,2470.39,2021-10-04T04:39:47Z
2021-10-04T02:41:27Z,42.805,6.029,13.2992,4.60006,2470.413,2021-10-04T04:42:50Z
2021-10-04T02:44:30Z,42.805,6.029,13.2992,4.60008,2470.437,2021-10-04T04:45:53Z
2021-10-04T02:47:33Z,42.805,6.029,13.2992,4.60009,2470.427,2021-10-04T04:48:56Z
2021-10-04T02:50:37Z,42.805,6.029,13.2992,4.60006,2470.413,2021-10-04T04:51:59Z
2021-10-04T02:53:40Z,42.805,6.029,13.2991,4.60008,2470.437,2021-10-04T04:55:02Z
2021-10-04T02:56:43Z,42.805,6.029,13.2990,4.60007,2470.413,2021-10-04T04:58:05Z
2021-10-04T02:59:46Z,42.805,6.029,13.2993,4.60007,2470.427,2021-10-04T05:01:08Z
2021-10-04T03:02:49Z,42.805,6.029,13.2993,4.60009,2470.39,2021-10-04T05:04:12Z
2021-10-04T03:05:52Z,42.805,6.029,13.2991,4.60008,2470.427,2021-10-04T05:07:15Z
2021-10-04T03:08:55Z,42.805,6.029,13.2993,4.60006,2470.399,2021-10-04T05:10:18Z
2021-10-04T03:11:58Z,42.805,6.029,13.2992,4.60008,2470.427,2021-10-04T05:13:21Z
2021-10-04T03:15:01Z,42.805,6.029,13.2990,4.60007,2470.46,2021-10-04T05:16:24Z
2021-10-04T03:18:05Z,42.805,6.029,13.2993,4.60007,2470.413,2021-10-04T05:19:27Z
2021-10-04T03:21:08Z,42.805,6.029,13.2989,4.60007,2470.437,2021-10-04T05:22:30Z
2021-10-04T03:24:11Z,42.805,6.029,13.2991,4.60006,2470.483,2021-10-04T05:25:33Z
2021-10-04T03:27:14Z,42.805,6.029,13.2993,4.60009,2470.437,2021-10-04T05:28:37Z
2021-10-04T03:30:17Z,42.805,6.029,13.2991,4.60006,2470.437,2021-10-04T05:31:40Z
2021-10-04T03:33:20Z,42.805,6.029,13.2991,4.60007,2470.497,2021-10-04T05:34:43Z
2021-10-04T03:36:23Z,42.805,6.029,13.2991,4.60009,2470.474,2021-10-04T05:37:46Z
2021-10-04T03:39:26Z,42.805,6.029,13.2989,4.60007,2470.46,2021-10-04T05:40:49Z
2021-10-04T03:42:30Z,42.805,6.029,13.2991,4.60006,2470.46,2021-10-04T05:43:52Z
2021-10-04T03:45:33Z,42.805,6.029,13.2993,4.60009,2470.46,2021-10-04T05:46:55Z
2021-10-04T03:48:36Z,42.805,6.029,13.2994,4.60008,2470.483,2021-10-04T05:49:58Z
2021-10-04T03:51:39Z,42.805,6.029,13.2990,4.60006,2470.474,2021-10-04T05:53:02Z
2021-10-04T03:54:42Z,42.805,6.029,13.2993,4.60008,2470.46,2021-10-04T05:56:05Z
2021-10-04T03:57:45Z,42.805,6.029,13.2990,4.60007,2470.46,2021-10-04T05:59:08Z
2021-10-04T04:00:48Z,42.805,6.029,13.2989,4.60009,2470.47,2021-10-04T06:02:11Z
2021-10-04T04:03:51Z,42.805,6.029,13.2990,4.60006,2470.474,2021-10-04T06:05:14Z
2021-10-04T04:06:55Z,42.805,6.029,13.2990,4.60007,2470.474,2021-10-04T06:08:17Z
2021-10-04T04:09:58Z,42.805,6.029,13.2990,4.60009,2470.497,2021-10-04T06:11:20Z
2021-10-04T04:13:01Z,42.805,6.029,13.2990,4.60009,2470.497,2021-10-04T06:14:23Z
2021-10-04T04:16:04Z,42.805,6.029,13.2990,4.60007,2470.497,2021-10-04T06:17:26Z
2021-10-04T04:19:07Z,42.805,6.029,13.2991,4.60007,2470.483,2021-10-04T06:20:30Z
2021-10-04T04:22:10Z,42.805,6.029,13.2990,4.60008,2470.497,2021-10-04T06:23:33Z
2021-10-04T04:25:13Z,42.805,6.029,13.2990,4.60006,2470.497,2021-10-04T06:26:36Z
2021-10-04T04:28:16Z,42.805,6.029,13.2992,4.60007,2470.474,2021-10-04T06:29:39Z
2021-10-04T04:31:19Z,42.805,6.029,13.2992,4.60007,2470.46,2021-10-04T06:32:42Z
2021-10-04T04:34:23Z,42.805,6.029,13.2993,4.60007,2470.483,2021-10-04T06:35:45Z
2021-10-04T04:37:26Z,42.805,6.029,13.2996,4.60008,2470.483,2021-10-04T06:38:48Z
2021-10-04T04:40:29Z,42.805,6.029,13.2989,4.60007,2470.46,2021-10-04T06:41:51Z
2021-10-04T04:43:32Z,42.805,6.029,13.2992,4.60009,2470.497,2021-10-04T06:44:55Z
2021-10-04T04:46:35Z,42.805,6.029,13.2993,4.60009,2470.46,2021-10-04T06:47:58Z
2021-10-04T04:49:38Z,42.805,6.029,13.2988,4.60007,2470.46,2021-10-04T06:51:01Z
2021-10-04T04:52:41Z,42.805,6.029,13.2992,4.60007,2470.507,2021-10-04T06:54:04Z
2021-10-04T04:55:44Z,42.805,6.029,13.2993,4.60007,2470.474,2021-10-04T06:57:07Z
2021-10-04T04:58:48Z,42.805,6.029,13.2991,4.60008,2470.507,2021-10-04T07:00:10Z
2021-10-04T05:01:51Z,42.805,6.029,13.2990,4.60009,2470.507,2021-10-04T07:03:13Z
2021-10-04T05:04:54Z,42.805,6.029,13.2992,4.60007,2470.497,2021-10-04T07:06:16Z
2021-10-04T05:07:57Z,42.805,6.029,13.2994,4.60009,2470.52,2021-10-04T07:09:19Z
2021-10-04T05:11:00Z,42.805,6.029,13.2991,4.60007,2470.46,2021-10-04T07:12:23Z
2021-10-04T05:14:03Z,42.805,6.029,13.2992,4.60007,2470.52,2021-10-04T07:15:26Z
2021-10-04T05:17:06Z,42.805,6.029,13.2991,4.60008,2470.497,2021-10-04T07:18:29Z
2021-10-04T05:20:09Z,42.805,6.029,13.2993,4.60007,2470.483,2021-10-04T07:21:32Z
2021-10-04T05:23:12Z,42.805,6.029,13.2994,4.60010,2470.52,2021-10-04T07:24:35Z
2021-10-04T05:26:16Z,42.805,6.029,13.2992,4.60007,2470.497,2021-10-04T07:27:38Z
2021-10-04T05:29:19Z,42.805,6.029,13.2993,4.60007,2470.46,2021-10-04T07:30:41Z
2021-10-04T05:32:22Z,42.805,6.029,13.2992,4.60007,2470.507,2021-10-04T07:33:44Z
2021-10-04T05:35:25Z,42.805,6.029,13.2992,4.60008,2470.46,2021-10-04T07:36:48Z
2021-10-04T05:38:28Z,42.805,6.029,13.2992,4.60007,2470.483,2021-10-04T07:39:51Z
2021-10-04T05:41:31Z,42.805,6.029,13.2994,4.60006,2470.497,2021-10-04T07:42:54Z
2021-10-04T05:44:34Z,42.805,6.029,13.2993,4.60006,2470.483,2021-10-04T07:45:57Z
2021-10-04T05:47:37Z,42.805,6.029,13.2990,4.60009,2470.497,2021-10-04T07:49:00Z
2021-10-04T05:50:41Z,42.805,6.029,13.2991,4.60006,2470.497,2021-10-04T07:52:03Z
2021-10-04T05:53:44Z,42.805,6.029,13.2990,4.60008,2470.507,2021-10-04T07:55:06Z
2021-10-04T05:56:47Z,42.805,6.029,13.2992,4.60008,2470.483,2021-10-04T07:58:09Z
2021-10-04T05:59:50Z,42.805,6.029,13.2991,4.60007,2470.497,2021-10-04T08:01:12Z
2021-10-04T06:02:53Z,42.805,6.029,13.2997,4.60006,2470.474,2021-10-04T08:04:16Z
2021-10-04T06:05:56Z,42.805,6.029,13.2991,4.60007,2470.497,2021-10-04T08:07:19Z
2021-10-04T06:08:59Z,42.805,6.029,13.2990,4.60006,2470.474,2021-10-04T08:10:22Z
2021-10-04T06:12:02Z,42.805,6.029,13.2990,4.60008,2470.483,2021-10-04T08:13:25Z
2021-10-04T06:15:05Z,42.805,6.029,13.2994,4.60008,2470.497,2021-10-04T08:16:28Z
2021-10-04T06:18:09Z,42.805,6.029,13.2994,4.60008,2470.507,2021-10-04T08:19:31Z
2021-10-04T06:21:12Z,42.805,6.029,13.2994,4.60008,2470.483,2021-10-04T08:22:34Z
2021-10-04T06:24:15Z,42.805,6.029,13.2992,4.60008,2470.497,2021-10-04T08:25:37Z
2021-10-04T06:27:18Z,42.805,6.029,13.2990,4.60006,2470.483,2021-10-04T08:28:40Z
2021-10-04T06:30:21Z,42.805,6.029,13.2990,4.60009,2470.483,2021-10-04T08:31:44Z
2021-10-04T06:33:24Z,42.805,6.029,13.2991,4.60007,2470.497,2021-10-04T08:34:47Z
2021-10-04T06:36:27Z,42.805,6.029,13.2988,4.60010,2470.497,2021-10-04T08:37:50Z
2021-10-04T06:39:30Z,42.805,6.029,13.2993,4.60009,2470.497,2021-10-04T08:40:53Z
2021-10-04T06:42:34Z,42.805,6.029,13.2992,4.60006,2470.483,2021-10-04T08:43:56Z
2021-10-04T06:45:37Z,42.805,6.029,13.2990,4.60007,2470.46,2021-10-04T08:46:59Z
2021-10-04T06:48:40Z,42.805,6.029,13.2992,4.60011,2470.497,2021-10-04T08:50:02Z
2021-10-04T06:51:43Z,42.805,6.029,13.2993,4.60007,2470.483,2021-10-04T08:53:05Z
2021-10-04T06:54:46Z,42.805,6.029,13.2991,4.60006,2470.497,2021-10-04T08:56:09Z
2021-10-04T06:57:49Z,42.805,6.029,13.2994,4.60009,2470.507,2021-10-04T08:59:12Z
2021-10-04T07:00:52Z,42.805,6.029,13.2994,4.60009,2470.46,2021-10-04T09:02:15Z
2021-10-04T07:03:55Z,42.805,6.029,13.2993,4.60008,2470.497,2021-10-04T09:05:18Z
2021-10-04T07:06:58Z,42.805,6.029,13.2990,4.60007,2470.483,2021-10-04T09:08:21Z
2021-10-04T07:10:02Z,42.805,6.029,13.2991,4.60009,2470.497,2021-10-04T09:11:24Z
2021-10-04T07:13:05Z,42.805,6.029,13.2993,4.60007,2470.46,2021-10-04T09:14:27Z
2021-10-04T07:16:08Z,42.805,6.029,13.2990,4.60006,2470.46,2021-10-04T09:17:30Z
2021-10-04T07:19:11Z,42.805,6.029,13.2991,4.60007,2470.483,2021-10-04T09:20:33Z
2021-10-04T07:22:14Z,42.805,6.029,13.2990,4.60007,2470.483,2021-10-04T09:23:37Z
2021-10-04T07:25:17Z,42.805,6.029,13.2991,4.60009,2470.483,2021-10-04T09:26:40Z
2021-10-04T07:28:20Z,42.805,6.029,13.2991,4.60010,2470.46,2021-10-04T09:29:43Z
2021-10-04T07:31:23Z,42.805,6.029,13.2994,4.60006,2470.46,2021-10-04T09:32:46Z
2021-10-04T07:34:26Z,42.805,6.029,13.2993,4.60006,2470.474,2021-10-04T09:35:49Z
2021-10-04T07:37:30Z,42.805,6.029,13.2990,4.60007,2470.46,2021-10-04T09:38:52Z
2021-10-04T07:40:33Z,42.805,6.029,13.2994,4.60006,2470.46,2021-10-04T09:41:55Z
2021-10-04T07:43:36Z,42.805,6.029,13.2991,4.60007,2470.474,2021-10-04T09:44:58Z
2021-10-04T07:46:39Z,42.805,6.029,13.2993,4.60006,2470.46,2021-10-04T09:48:01Z
2021-10-04T07:49:42Z,42.805,6.029,13.2991,4.60008,2470.46,2021-10-04T09:51:05Z
2021-10-04T07:52:45Z,42.805,6.029,13.2991,4.60007,2470.46,2021-10-04T09:54:08Z
2021-10-04T07:55:48Z,42.805,6.029,13.2991,4.60007,2470.46,2021-10-04T09:57:11Z
2021-10-04T07:58:51Z,42.805,6.029,13.2991,4.60006,2470.474,2021-10-04T10:00:14Z
2021-10-04T08:01:55Z,42.805,6.029,13.2991,4.60005,2470.45,2021-10-04T10:03:17Z
2021-10-04T08:04:58Z,42.805,6.029,13.2993,4.60006,2470.483,2021-10-04T10:06:20Z
2021-10-04T08:08:01Z,42.805,6.029,13.2996,4.60006,2470.46,2021-10-04T10:09:23Z
2021-10-04T08:11:04Z,42.805,6.029,13.2991,4.60008,2470.46,2021-10-04T10:12:26Z
2021-10-04T08:14:07Z,42.805,6.029,13.2991,4.60007,2470.46,2021-10-04T10:15:30Z
2021-10-04T08:17:10Z,42.805,6.029,13.2990,4.60006,2470.45,2021-10-04T10:18:33Z
2021-10-04T08:20:13Z,42.805,6.029,13.2991,4.60006,2470.483,2021-10-04T10:21:36Z
2021-10-04T08:23:16Z,42.805,6.029,13.2991,4.60008,2470.46,2021-10-04T10:24:39Z
2021-10-04T08:26:19Z,42.805,6.029,13.2991,4.60011,2470.45,2021-10-04T10:27:42Z
2021-10-04T08:29:23Z,42.805,6.029,13.2989,4.60007,2470.46,2021-10-04T10:30:45Z
2021-10-04T08:32:26Z,42.805,6.029,13.2991,4.60009,2470.413,2021-10-04T10:33:48Z
2021-10-04T08:35:29Z,42.805,6.029,13.2991,4.60006,2470.46,2021-10-04T10:36:51Z
2021-10-04T08:38:32Z,42.805,6.029,13.2991,4.60007,2470.437,2021-10-04T10:39:55Z
2021-10-04T08:41:35Z,42.805,6.029,13.2992,4.60006,2470.437,2021-10-04T10:42:58Z
2021-10-04T08:44:38Z,42.805,6.029,13.2990,4.60006,2470.437,2021-10-04T10:46:01Z
2021-10-04T08:47:41Z,42.805,6.029,13.2991,4.60008,2470.45,2021-10-04T10:49:04Z
2021-10-04T08:50:44Z,42.805,6.029,13.2995,4.60009,2470.437,2021-10-04T10:52:07Z
2021-10-04T08:53:48Z,42.805,6.029,13.2993,4.60009,2470.45,2021-10-04T10:55:10Z
2021-10-04T08:56:51Z,42.805,6.029,13.2993,4.60006,2470.45,2021-10-04T10:58:13Z
2021-10-04T08:59:54Z,42.805,6.029,13.2994,4.60007,2470.437,2021-10-04T11:01:16Z
2021-10-04T09:02:57Z,42.805,6.029,13.2991,4.60009,2470.45,2021-10-04T11:04:20Z
2021-10-04T09:06:00Z,42.805,6.029,13.2994,4.60007,2470.45,2021-10-04T11:07:23Z
2021-10-04T09:09:03Z,42.805,6.029,13.2991,4.60006,2470.427,2021-10-04T11:10:26Z
2021-10-04T09:12:06Z,42.805,6.029,13.2991,4.60007,2470.45,2021-10-04T11:13:29Z
2021-10-04T09:15:09Z,42.805,6.029,13.2995,4.60006,2470.427,2021-10-04T11:16:32Z
2021-10-04T09:18:13Z,42.805,6.029,13.2990,4.60006,2470.437,2021-10-04T11:19:35Z
2021-10-04T09:21:16Z,42.805,6.029,13.2993,4.60006,2470.45,2021-10-04T11:22:38Z
2021-10-04T09:24:19Z,42.805,6.029,13.2991,4.60009,2470.427,2021-10-04T11:25:41Z
2021-10-04T09:27:22Z,42.805,6.029,13.2990,4.60006,2470.427,2021-10-04T11:28:45Z
2021-10-04T09:30:25Z,42.805,6.029,13.2990,4.60007,2470.427,2021-10-04T11:31:48Z
2021-10-04T09:33:28Z,42.805,6.029,13.2991,4.60006,2470.427,2021-10-04T11:34:51Z
2021-10-04T09:36:31Z,42.805,6.029,13.2988,4.60006,2470.399,2021-10-04T11:37:54Z
2021-10-04T09:39:34Z,42.805,6.029,13.2992,4.60008,2470.404,2021-10-04T11:40:57Z
2021-10-04T09:42:38Z,42.805,6.029,13.2990,4.60007,2470.427,2021-10-04T11:44:00Z
2021-10-04T09:45:41Z,42.805,6.029,13.2991,4.60007,2470.404,2021-10-04T11:47:03Z
2021-10-04T09:48:44Z,42.805,6.029,13.2993,4.60007,2470.39,2021-10-04T11:50:06Z
2021-10-04T09:51:47Z,42.805,6.029,13.2991,4.60008,2470.404,2021-10-04T11:53:10Z
2021-10-04T09:54:50Z,42.805,6.029,13.2991,4.60006,2470.39,2021-10-04T11:56:13Z
2021-10-04T09:57:53Z,42.805,6.029,13.2994,4.60005,2470.404,2021-10-04T11:59:16Z
2021-10-04T10:00:56Z,42.805,6.029,13.2991,4.60006,2470.39,2021-10-04T12:02:19Z
2021-10-04T10:03:59Z,42.805,6.029,13.2994,4.60006,2470.413,2021-10-04T12:05:22Z
2021-10-04T10:07:03Z,42.805,6.029,13.2989,4.60006,2470.404,2021-10-04T12:08:25Z
2021-10-04T10:10:06Z,42.805,6.029,13.2993,4.60006,2470.404,2021-10-04T12:11:28Z
2021-10-04T10:13:09Z,42.805,6.029,13.2990,4.60008,2470.366,2021-10-04T12:14:31Z
2021-10-04T10:16:12Z,42.805,6.029,13.2995,4.60006,2470.366,2021-10-04T12:17:35Z
2021-10-04T10:19:15Z,42.805,6.029,13.2990,4.60007,2470.404,2021-10-04T12:20:38Z
2021-10-04T10:22:18Z,42.805,6.029,13.2994,4.60005,2470.366,2021-10-04T12:23:41Z
2021-10-04T10:25:21Z,42.805,6.029,13.2988,4.60007,2470.404,2021-10-04T12:26:44Z
2021-10-04T10:28:24Z,42.805,6.029,13.2990,4.60006,2470.39,2021-10-04T12:29:47Z
2021-10-04T10:31:28Z,42.805,6.029,13.2993,4.60006,2470.366,2021-10-04T12:32:50Z
2021-10-04T10:34:31Z,42.805,6.029,13.2991,4.60009,2470.413,2021-10-04T12:35:53Z
2021-10-04T10:37:34Z,42.805,6.029,13.2990,4.60006,2470.366,2021-10-04T12:38:56Z
2021-10-04T10:40:37Z,42.805,6.029,13.2990,4.60005,2470.357,2021-10-04T12:42:00Z
2021-10-04T10:43:40Z,42.805,6.029,13.2990,4.60006,2470.38,2021-10-04T12:45:03Z
2021-10-04T10:46:43Z,42.805,6.029,13.2991,4.60006,2470.343,2021-10-04T12:48:06Z
2021-10-04T10:49:46Z,42.805,6.029,13.2991,4.60005,2470.366,2021-10-04T12:51:09Z
2021-10-04T10:52:49Z,42.805,6.029,13.2992,4.60007,2470.38,2021-10-04T12:54:12Z
2021-10-04T10:55:53Z,42.805,6.029,13.2991,4.60007,2470.343,2021-10-04T12:57:15Z
2021-10-04T10:58:56Z,42.805,6.029,13.2989,4.60005,2470.343,2021-10-04T13:00:18Z
2021-10-04T11:01:59Z,42.805,6.029,13.2988,4.60006,2470.357,2021-10-04T13:03:21Z
2021-10-04T11:05:02Z,42.805,6.029,13.2993,4.60007,2470.404,2021-10-04T13:06:24Z
2021-10-04T11:08:05Z,42.805,6.029,13.2990,4.60006,2470.357,2021-10-04T13:09:28Z
2021-10-04T11:11:08Z,42.805,6.029,13.2990,4.60006,2470.343,2021-10-04T13:12:31Z
2021-10-04T11:14:11Z,42.805,6.029,13.2993,4.60006,2470.343,2021-10-04T13:15:34Z
2021-10-04T11:17:14Z,42.805,6.029,13.2990,4.60007,2470.343,2021-10-04T13:18:37Z
2021-10-04T11:20:18Z,42.805,6.029,13.2993,4.60007,2470.38,2021-10-04T13:21:40Z
2021-10-04T11:23:21Z,42.805,6.029,13.2993,4.60007,2470.343,2021-10-04T13:24:43Z
2021-10-04T11:26:24Z,42.805,6.029,13.2991,4.60006,2470.38,2021-10-04T13:27:46Z
2021-10-04T11:29:27Z,42.805,6.029,13.2992,4.60008,2470.357,2021-10-04T13:30:49Z
2021-10-04T11:32:30Z,42.805,6.029,13.2993,4.60006,2470.343,2021-10-04T13:33:53Z
2021-10-04T11:35:33Z,42.805,6.029,13.2987,4.60006,2470.366,2021-10-04T13:36:56Z
2021-10-04T11:38:36Z,42.805,6.029,13.2991,4.60006,2470.357,2021-10-04T13:39:59Z
2021-10-04T11:41:39Z,42.805,6.029,13.2993,4.60006,2470.39,2021-10-04T13:43:02Z
2021-10-04T11:44:42Z,42.805,6.029,13.2991,4.60005,2470.366,2021-10-04T13:46:05Z
2021-10-04T11:47:46Z,42.805,6.029,13.2990,4.60006,2470.334,2021-10-04T13:49:08Z
2021-10-04T11:50:49Z,42.805,6.029,13.2992,4.60006,2470.343,2021-10-04T13:52:11Z
2021-10-04T11:53:52Z,42.805,6.029,13.2991,4.60006,2470.343,2021-10-04T13:55:14Z
2021-10-04T11:56:55Z,42.805,6.029,13.2991,4.60007,2470.343,2021-10-04T13:58:18Z
2021-10-04T11:59:58Z,42.805,6.029,13.2995,4.60007,2470.357,2021-10-04T14:01:21Z
2021-10-04T12:03:01Z,42.805,6.029,13.2992,4.60006,2470.32,2021-10-04T14:04:24Z
2021-10-04T12:06:04Z,42.805,6.029,13.2994,4.60006,2470.357,2021-10-04T14:07:27Z
2021-10-04T12:09:07Z,42.805,6.029,13.2991,4.60005,2470.357,2021-10-04T14:10:30Z
2021-10-04T12:12:11Z,42.805,6.029,13.2993,4.60006,2470.38,2021-10-04T14:13:33Z
2021-10-04T12:15:14Z,42.805,6.029,13.2992,4.60007,2470.343,2021-10-04T14:16:36Z
2021-10-04T12:18:17Z,42.805,6.029,13.2990,4.60006,2470.343,2021-10-04T14:19:39Z
2021-10-04T12:21:20Z,42.805,6.029,13.2993,4.60006,2470.343,2021-10-04T14:22:43Z
2021-10-04T12:24:23Z,42.805,6.029,13.2992,4.60006,2470.343,2021-10-04T14:25:46Z
2021-10-04T12:27:26Z,42.805,6.029,13.2991,4.60006,2470.343,2021-10-04T14:28:49Z
2021-10-04T12:30:29Z,42.805,6.029,13.2992,4.60007,2470.366,2021-10-04T14:31:52Z
2021-10-04T12:33:32Z,42.805,6.029,13.2991,4.60006,2470.32,2021-10-04T14:34:55Z
2021-10-04T12:36:36Z,42.805,6.029,13.2988,4.60005,2470.334,2021-10-04T14:37:58Z
2021-10-04T12:39:39Z,42.805,6.029,13.2991,4.60004,2470.343,2021-10-04T14:41:01Z
2021-10-04T12:42:42Z,42.805,6.029,13.2989,4.60007,2470.32,2021-10-04T14:44:04Z
2021-10-04T12:45:45Z,42.805,6.029,13.2989,4.60007,2470.343,2021-10-04T14:47:08Z
2021-10-04T12:48:48Z,42.805,6.029,13.2991,4.60006,2470.366,2021-10-04T14:50:11Z
2021-10-04T12:51:51Z,42.805,6.029,13.2990,4.60007,2470.357,2021-10-04T14:53:14Z
2021-10-04T12:54:54Z,42.805,6.029,13.2988,4.60008,2470.334,2021-10-04T14:56:17Z
2021-10-04T12:57:57Z,42.805,6.029,13.2992,4.60007,2470.357,2021-10-04T14:59:20Z
2021-10-04T13:01:01Z,42.805,6.029,13.2994,4.60006,2470.357,2021-10-04T15:02:23Z
2021-10-04T13:04:04Z,42.805,6.029,13.2991,4.60005,2470.343,2021-10-04T15:05:26Z
2021-10-04T13:07:07Z,42.805,6.029,13.2996,4.60006,2470.366,2021-10-04T15:08:29Z
2021-10-04T13:10:10Z,42.805,6.029,13.2991,4.60006,2470.343,2021-10-04T15:11:32Z
2021-10-04T13:13:13Z,42.805,6.029,13.2991,4.60007,2470.32,2021-10-04T15:14:36Z
2021-10-04T13:16:16Z,42.805,6.029,13.2994,4.60005,2470.413,2021-10-04T15:17:39Z
2021-10-04T13:19:19Z,42.805,6.029,13.2992,4.60005,2470.357,2021-10-04T15:20:42Z
2021-10-04T13:22:22Z,42.805,6.029,13.2996,4.60005,2470.38,2021-10-04T15:23:45Z
2021-10-04T13:25:26Z,42.805,6.029,13.2991,4.60006,2470.366,2021-10-04T15:26:48Z
2021-10-04T13:28:29Z,42.805,6.029,13.2988,4.60007,2470.38,2021-10-04T15:29:51Z
2021-10-04T13:31:32Z,42.805,6.029,13.2988,4.60009,2470.366,2021-10-04T15:32:54Z
2021-10-04T13:34:35Z,42.805,6.029,13.2988,4.60006,2470.366,2021-10-04T15:35:57Z
2021-10-04T13:37:38Z,42.805,6.029,13.2992,4.60005,2470.366,2021-10-04T15:39:01Z
2021-10-04T13:40:41Z,42.805,6.029,13.2990,4.60005,2470.39,2021-10-04T15:42:04Z
2021-10-04T13:43:44Z,42.805,6.029,13.2990,4.60006,2470.39,2021-10-04T15:45:07Z
2021-10-04T13:46:47Z,42.805,6.029,13.2991,4.60005,2470.366,2021-10-04T15:48:10Z
2021-10-04T13:49:51Z,42.805,6.029,13.2992,4.60006,2470.427,2021-10-04T15:51:13Z
2021-10-04T13:52:54Z,42.805,6.029,13.2990,4.60006,2470.38,2021-10-04T15:54:16Z
2021-10-04T13:55:57Z,42.805,6.029,13.2989,4.60008,2470.366,2021-10-04T15:57:19Z
2021-10-04T13:59:00Z,42.805,6.029,13.2991,4.60006,2470.427,2021-10-04T16:00:22Z
2021-10-04T14:02:03Z,42.805,6.029,13.2987,4.60005,2470.404,2021-10-04T16:03:26Z
2021-10-04T14:05:06Z,42.805,6.029,13.2991,4.60005,2470.404,2021-10-04T16:06:29Z
2021-10-04T14:08:09Z,42.805,6.029,13.2992,4.60007,2470.427,2021-10-04T16:09:32Z
2021-10-04T14:11:12Z,42.805,6.029,13.2992,4.60006,2470.404,2021-10-04T16:12:35Z
2021-10-04T14:14:15Z,42.805,6.029,13.2990,4.60005,2470.437,2021-10-04T16:15:38Z
2021-10-04T14:17:19Z,42.805,6.029,13.2991,4.60006,2470.427,2021-10-04T16:18:41Z
2021-10-04T14:20:22Z,42.805,6.029,13.2991,4.60006,2470.437,2021-10-04T16:21:44Z
2021-10-04T14:23:25Z,42.805,6.029,13.2993,4.60005,2470.413,2021-10-04T16:24:47Z
2021-10-04T14:26:28Z,42.805,6.029,13.2986,4.60007,2470.404,2021-10-04T16:27:51Z
2021-10-04T14:29:31Z,42.805,6.029,13.2990,4.60006,2470.46,2021-10-04T16:30:54Z
2021-10-04T14:32:34Z,42.805,6.029,13.2993,4.60004,2470.45,2021-10-04T16:33:57Z
2021-10-04T14:35:37Z,42.805,6.029,13.2988,4.60006,2470.45,2021-10-04T16:37:00Z
2021-10-04T14:38:40Z,42.805,6.029,13.2988,4.60006,2470.413,2021-10-04T16:40:03Z
2021-10-04T14:41:44Z,42.805,6.029,13.2996,4.60005,2470.46,2021-10-04T16:43:06Z
2021-10-04T14:44:47Z,42.805,6.029,13.2993,4.60005,2470.427,2021-10-04T16:46:09Z
2021-10-04T14:47:50Z,42.805,6.029,13.2991,4.60006,2470.413,2021-10-04T16:49:12Z
2021-10-04T14:50:53Z,42.805,6.029,13.2990,4.60006,2470.413,2021-10-04T16:52:16Z
2021-10-04T14:53:56Z,42.805,6.029,13.2991,4.60009,2470.46,2021-10-04T16:55:19Z
2021-10-04T14:56:59Z,42.805,6.029,13.2990,4.60006,2470.45,2021-10-04T16:58:22Z
2021-10-04T15:00:02Z,42.805,6.029,13.2993,4.60007,2470.413,2021-10-04T17:01:25Z
2021-10-04T15:03:05Z,42.805,6.029,13.2991,4.60006,2470.437,2021-10-04T17:04:28Z